Location: Fairhaven
(34.9340°N, 89.7987°W)
Time: 03:37:39
(UTC+00:00)

Cosmos 2221 Rocket - Pass Details

Date: 13 February 2026
Orbit: 616 x 641 km, 82.5° (Epoch: 6 March)

Event Time Altitude Azimuth Distance (km) Brightness Sun altitude
Rises 12:10:02 0° 340° (NNW) 2,951 6.7 -8.2°
Reaches altitude 10° 12:12:30 10° 330° (NNW) 2,036 5.8 -7.7°
Maximum altitude 12:16:23 29° 270° (W) 1,173 4.5 -6.9°
Drops below altitude 10° 12:20:15 10° 210° (SSW) 2,016 6.0 -6.2°
Sets 12:22:42 0° 200° (SSW) 2,916 6.9 -5.7°
